Content
SEND FEEDBACK

Daily
Averages
Monthly
Summary
United States of America

HELENA, MONTANA


Home > North America > United States > Montana
Elevation: 4001 feet     Latitude: 46 36N     Longitude: 112 00W

WEATHER
 
SELECT A DAY
Number of Records: 186,623;   Date Range: 1/1/95 - 7/23/14
 
SHARE

PRINT THIS DATA

[ ← Previous Day ]
WEATHER ALMANAC - FEBRUARY 13, 2013
[ Next Day → ]
[ °C ]   °F
Weather ElementAverageHighLow
Temperature40 °F44.1 °F (11:53 am)33.1 °F (11:53 pm)
Dewpoint22.3 °F24.1 °F (3:53 am)19 °F (7:53 pm)
Humidity49.6 %66 % (11:53 pm)43 % (11:53 am)
Barometer30.09 in30.23 in (11:53 pm)29.99 in (7:53 am)
Wind Speed16.3 mph28.8 mph (11:53 am)
Wind Gust47.2 mph (11:53 am)
Weather ElementAverage
Visibility10 mi
Wind DirectionWNW (278.3 °)

Weather ElementTotal
Precipitation---
Heating Degree Days26.4 (Base 65)
Averaged from 23 records on February 13, 2013
WEATHER CONDITIONS BREAKOUT
WIND DIRECTION BREAKOUT
WEATHER BY HOUR - FEBRUARY 13, 2013
[ °C ]   °F
Local TimeTemperatureDewpointHumidityBarometerVisibilityWind DirectionWind SpeedGust SpeedPrecipitationEventsConditions
1:53 AM39.9 °F23.0 °F51 %30.09 in10.0 miWest (260°)12.7 mph19.6 mphOvercast
2:53 AM39.0 °F23.0 °F53 %30.07 in10.0 miWSW (240°)16.1 mph23.0 mphOvercast
3:53 AM39.0 °F24.1 °F55 %30.05 in10.0 miWest (260°)4.6 mphOvercast
4:53 AM39.0 °F24.1 °F55 %30.04 in10.0 miWest (260°)8.1 mphOvercast
5:53 AM41.0 °F24.1 °F51 %30.01 in10.0 miSW (230°)16.1 mph20.7 mphMostly Cloudy
6:53 AM41.0 °F24.1 °F51 %30.01 in10.0 miWest (260°)15.0 mph23.0 mphOvercast
7:53 AM41.0 °F24.1 °F51 %29.99 in10.0 miWest (260°)16.1 mph23.0 mphOvercast
8:53 AM41.0 °F23.0 °F49 %30.02 in10.0 miWest (280°)12.7 mph23.0 mphOvercast
9:53 AM42.1 °F23.0 °F47 %30.04 in10.0 miWNW (290°)18.4 mph31.1 mphMostly Cloudy
10:53 AM43.0 °F23.0 °F45 %30.05 in10.0 miWNW (300°)24.2 mph32.2 mphMostly Cloudy
11:53 AM44.1 °F23.0 °F43 %30.05 in10.0 miWNW (300°)28.8 mph47.2 mphPartly Cloudy
12:53 PM44.1 °F24.1 °F45 %30.06 in10.0 miWest (280°)21.9 mph40.3 mphPartly Cloudy
1:53 PM43.0 °F21.9 °F43 %30.06 in10.0 miWNW (300°)21.9 mph33.4 mphMostly Cloudy
2:53 PM42.1 °F21.0 °F43 %30.07 in10.0 miWNW (300°)26.5 mph41.4 mphMostly Cloudy
3:53 PM42.1 °F21.9 °F45 %30.09 in10.0 miWNW (290°)15.0 mph26.5 mphOvercast
4:53 PM39.9 °F21.0 °F47 %30.11 in10.0 miWNW (290°)11.5 mph25.3 mphMostly Cloudy
5:53 PM39.0 °F21.0 °F49 %30.11 in10.0 miWest (280°)21.9 mph27.6 mphPartly Cloudy
6:53 PM39.0 °F19.9 °F46 %30.13 in10.0 miWest (280°)18.4 mphClear
7:53 PM37.9 °F19.0 °F47 %30.14 in10.0 miWest (280°)17.3 mph29.9 mphClear
8:53 PM37.9 °F19.9 °F48 %30.15 in10.0 miWNW (290°)13.8 mph24.2 mphClear
9:53 PM37.0 °F19.9 °F50 %30.18 in10.0 miWest (280°)12.7 mphClear
10:53 PM34.0 °F21.9 °F61 %30.21 in10.0 miWest (270°)6.9 mphMostly Cloudy
11:53 PM33.1 °F23.0 °F66 %30.23 in10.0 miNW (320°)15.0 mphMostly Cloudy
Hourly data recorded from KHLN, located miles away from Helena, Montana







STORIES FROM OUR PARTNERS